• In Belarus
  • List of Countries
  • For 7 days
  • Water Temperature
  • Satellite Maps
  • Weather Map
  • Weather Widgets
  • user-avatar
    Login

    Hourly Weather Kranevo

    Today, 20 January, Saturday

    Time Temperature Precipitation Wind Pressure Humidity
    00:00 +3°C° 0 mm 3 mps 754 mmHg 66%
    01:00 +3°C° 0 mm 3 mps 754 mmHg 68%
    02:00 +1°C° 0 mm 4 mps 754 mmHg 70%
    03:00 +1°C° 0 mm 4 mps 754 mmHg 74%
    04:00 +1°C° 0 mm 4 mps 754 mmHg 78%
    05:00 +1°C° 0 mm 4 mps 753 mmHg 81%
    06:00 +1°C° 0 mm 4 mps 753 mmHg 80%
    07:00 +1°C° 0 mm 4 mps 753 mmHg 79%
    08:00 +1°C° 0 mm 4 mps 753 mmHg 75%
    09:00 +4°C° 0 mm 3 mps 753 mmHg 72%
    10:00 +5°C° 0 mm 3 mps 753 mmHg 68%
    11:00 +7°C° 0 mm 3 mps 753 mmHg 64%
    12:00 +8°C° 0 mm 3 mps 753 mmHg 66%
    13:00 +8°C° 0 mm 2 mps 753 mmHg 67%
    14:00 +8°C° 0 mm 2 mps 753 mmHg 68%
    15:00 +7°C° 0.1 mm 2 mps 753 mmHg 73%
    16:00 +6°C° 0.1 mm 2 mps 753 mmHg 77%
    17:00 +6°C° 0.1 mm 1 mps 752 mmHg 82%
    18:00 +5°C° 0.4 mm 2 mps 752 mmHg 84%
    19:00 +4°C° 0.4 mm 3 mps 752 mmHg 87%
    20:00 +3°C° 0.4 mm 3 mps 752 mmHg 89%
    21:00 +3°C° 1 mm 4 mps 752 mmHg 90%
    22:00 +1°C° 1 mm 5 mps 752 mmHg 91%
    23:00 +1°C° 1 mm 5 mps 753 mmHg 92%

    Tomorrow, 21 January, Sunday

    Time Temperature Precipitation Wind Pressure Humidity
    00:00 +1°C° 0.3 mm 5 mps 753 mmHg 93%
    01:00 +1°C° 0.3 mm 5 mps 753 mmHg 93%
    02:00 0°C° 0.3 mm 5 mps 753 mmHg 93%
    03:00 0°C° 0 mm 4 mps 754 mmHg 94%
    04:00 0°C° 0 mm 4 mps 754 mmHg 94%
    05:00 +1°C° 0 mm 3 mps 755 mmHg 94%
    06:00 0°C° 0 mm 3 mps 755 mmHg 93%
    07:00 +1°C° 0 mm 2 mps 755 mmHg 93%
    08:00 +1°C° 0 mm 2 mps 755 mmHg 93%
    09:00 +1°C° 0 mm 3 mps 755 mmHg 91%
    10:00 +2°C° 0 mm 3 mps 755 mmHg 88%
    11:00 +3°C° 0 mm 4 mps 755 mmHg 86%
    12:00 +2°C° 0.3 mm 5 mps 754 mmHg 87%
    13:00 +2°C° 0.3 mm 5 mps 753 mmHg 89%
    14:00 +3°C° 0.3 mm 6 mps 752 mmHg 90%
    15:00 +3°C° 1 mm 6 mps 752 mmHg 92%
    16:00 +3°C° 1 mm 6 mps 751 mmHg 94%
    17:00 +3°C° 1 mm 6 mps 750 mmHg 95%
    18:00 +3°C° 2.4 mm 6 mps 750 mmHg 96%
    19:00 +3°C° 2.4 mm 5 mps 749 mmHg 97%
    20:00 +3°C° 2.4 mm 5 mps 749 mmHg 97%
    21:00 +3°C° 1.3 mm 5 mps 748 mmHg 97%
    22:00 +5°C° 1.3 mm 4 mps 747 mmHg 98%
    23:00 +5°C° 1.3 mm 4 mps 747 mmHg 98%

    Day after tomorrow, 22 January, Monday

    Time Temperature Precipitation Wind Pressure Humidity
    00:00 +5°C° 1.4 mm 5 mps 746 mmHg 98%
    01:00 +6°C° 1.4 mm 5 mps 746 mmHg 98%
    02:00 +5°C° 1.4 mm 6 mps 745 mmHg 98%
    03:00 +5°C° 0.9 mm 6 mps 745 mmHg 97%
    04:00 +4°C° 0.9 mm 6 mps 744 mmHg 96%
    05:00 +4°C° 0.9 mm 6 mps 744 mmHg 95%
    06:00 +3°C° 0.2 mm 7 mps 744 mmHg 94%
    07:00 +3°C° 0.2 mm 7 mps 744 mmHg 93%
    08:00 +1°C° 0.2 mm 8 mps 744 mmHg 91%
    09:00 +1°C° 0.1 mm 9 mps 745 mmHg 90%
    10:00 +1°C° 0.1 mm 9 mps 745 mmHg 88%
    11:00 +1°C° 0.1 mm 10 mps 745 mmHg 87%
    12:00 -1°C° 0.1 mm 11 mps 746 mmHg 86%
    13:00 -1°C° 0.1 mm 12 mps 746 mmHg 85%
    14:00 -2°C° 0.1 mm 13 mps 746 mmHg 85%
    15:00 -2°C° 0 mm 13 mps 747 mmHg 84%
    16:00 -2°C° 0 mm 13 mps 748 mmHg 83%
    17:00 -4°C° 0 mm 13 mps 749 mmHg 82%
    18:00 -3°C° 0 mm 12 mps 750 mmHg 82%
    19:00 -3°C° 0 mm 12 mps 751 mmHg 81%
    20:00 -3°C° 0 mm 12 mps 752 mmHg 81%
    21:00 -4°C° 0 mm 11 mps 752 mmHg 81%
    22:00 -4°C° 0 mm 11 mps 753 mmHg 81%
    23:00 -4°C° 0 mm 11 mps 754 mmHg 80%

    23 January, Tuesday

    Time Temperature Precipitation Wind Pressure Humidity
    00:00 -4°C° 0 mm 11 mps 754 mmHg 81%
    01:00 -4°C° 0 mm 11 mps 755 mmHg 81%
    02:00 -6°C° 0 mm 11 mps 755 mmHg 81%
    03:00 -6°C° 0 mm 11 mps 756 mmHg 81%
    04:00 -6°C° 0 mm 11 mps 757 mmHg 80%
    05:00 -7°C° 0 mm 11 mps 757 mmHg 80%
    06:00 -7°C° 0 mm 10 mps 758 mmHg 79%
    07:00 -7°C° 0 mm 10 mps 759 mmHg 79%
    08:00 -7°C° 0 mm 10 mps 759 mmHg 78%
    09:00 -5°C° 0 mm 10 mps 760 mmHg 74%
    10:00 -5°C° 0 mm 10 mps 760 mmHg 71%
    11:00 -4°C° 0 mm 10 mps 761 mmHg 67%
    12:00 -3°C° 0 mm 10 mps 761 mmHg 64%
    13:00 -3°C° 0 mm 10 mps 761 mmHg 61%
    14:00 -2°C° 0 mm 10 mps 762 mmHg 58%
    15:00 -3°C° 0 mm 9 mps 762 mmHg 59%
    16:00 -4°C° 0 mm 9 mps 763 mmHg 60%
    17:00 -4°C° 0 mm 9 mps 763 mmHg 61%
    18:00 -5°C° 0 mm 9 mps 764 mmHg 62%
    19:00 -6°C° 0 mm 9 mps 765 mmHg 62%
    20:00 -6°C° 0 mm 9 mps 766 mmHg 63%
    21:00 -6°C° 0 mm 9 mps 766 mmHg 63%
    22:00 -7°C° 0 mm 8 mps 767 mmHg 63%
    23:00 -7°C° 0 mm 8 mps 767 mmHg 63%

    24 January, Wednesday

    Time Temperature Precipitation Wind Pressure Humidity
    00:00 -7°C° 0 mm 8 mps 768 mmHg 63%
    01:00 -7°C° 0 mm 8 mps 768 mmHg 63%
    02:00 -7°C° 0 mm 8 mps 768 mmHg 63%
    03:00 -7°C° 0 mm 7 mps 769 mmHg 63%
    04:00 -7°C° 0 mm 7 mps 769 mmHg 62%
    05:00 -7°C° 0 mm 7 mps 769 mmHg 62%
    06:00 -7°C° 0 mm 7 mps 770 mmHg 61%
    07:00 -6°C° 0 mm 6 mps 770 mmHg 61%
    08:00 -8°C° 0 mm 6 mps 771 mmHg 61%
    09:00 -5°C° 0 mm 6 mps 771 mmHg 55%
    10:00 -4°C° 0 mm 6 mps 771 mmHg 50%
    11:00 -3°C° 0 mm 7 mps 771 mmHg 45%
    12:00 -3°C° 0 mm 7 mps 771 mmHg 43%
    13:00 -2°C° 0 mm 7 mps 770 mmHg 42%
    14:00 -2°C° 0 mm 7 mps 770 mmHg 40%
    15:00 -3°C° 0 mm 6 mps 770 mmHg 44%
    16:00 -3°C° 0 mm 6 mps 770 mmHg 48%
    17:00 -4°C° 0 mm 5 mps 770 mmHg 52%
    18:00 -4°C° 0 mm 5 mps 770 mmHg 56%
    19:00 -5°C° 0 mm 5 mps 770 mmHg 59%
    20:00 -5°C° 0 mm 5 mps 770 mmHg 63%
    21:00 -5°C° 0 mm 5 mps 770 mmHg 64%
    22:00 -5°C° 0 mm 5 mps 770 mmHg 66%
    23:00 -5°C° 0 mm 6 mps 769 mmHg 67%

    25 January, Thursday

    Time Temperature Precipitation Wind Pressure Humidity
    00:00 -6°C° 0 mm 6 mps 769 mmHg 66%
    01:00 -6°C° 0 mm 6 mps 769 mmHg 65%
    02:00 -6°C° 0 mm 6 mps 769 mmHg 64%
    03:00 -7°C° 0 mm 7 mps 769 mmHg 64%
    04:00 -7°C° 0 mm 7 mps 768 mmHg 63%
    05:00 -7°C° 0 mm 7 mps 768 mmHg 63%
    06:00 -8°C° 0 mm 7 mps 768 mmHg 65%
    07:00 -8°C° 0 mm 7 mps 768 mmHg 68%
    08:00 -8°C° 0 mm 7 mps 768 mmHg 70%
    09:00 -8°C° 0 mm 7 mps 769 mmHg 69%
    10:00 -6°C° 0 mm 6 mps 769 mmHg 68%
    11:00 -6°C° 0 mm 6 mps 769 mmHg 67%
    12:00 -5°C° 0 mm 6 mps 768 mmHg 66%
    13:00 -4°C° 0 mm 6 mps 768 mmHg 65%
    14:00 -4°C° 0 mm 6 mps 768 mmHg 64%
    15:00 -4°C° 0 mm 6 mps 768 mmHg 68%
    16:00 -4°C° 0 mm 6 mps 768 mmHg 71%
    17:00 -5°C° 0 mm 6 mps 768 mmHg 74%
    18:00 -5°C° 0 mm 6 mps 768 mmHg 77%
    19:00 -5°C° 0 mm 6 mps 768 mmHg 79%
    20:00 -5°C° 0 mm 6 mps 769 mmHg 82%
    21:00 -5°C° 0 mm 5 mps 768 mmHg 83%
    22:00 -5°C° 0 mm 5 mps 768 mmHg 84%
    23:00 -5°C° 0 mm 5 mps 768 mmHg 85%
    Show more